This is the latest recevied weather packets stored in our database for station/object IW3HBX-3. If no packets are shown the sender has not sent any weather packets the latest 1 day(s).
| Time | Temp. | Humidity | Pressure | Rain* | Wind** | Luminosity | Snow |
|---|---|---|---|---|---|---|---|
| 1777996194 | 13.89° C | 94% | 1014.1 hPa | 0 mm | 2.24 m/s, 63° | 17 W/m² | - |
| 1777995894 | 13.89° C | 94% | 1014.1 hPa | 0 mm | 0.45 m/s, 72° | 11 W/m² | - |
| 1777995594 | 13.89° C | 94% | 1014.1 hPa | 0 mm | 1.34 m/s, 47° | 11 W/m² | - |
| 1777995294 | 13.89° C | 94% | 1014.1 hPa | 0 mm | 0.45 m/s, 295° | 11 W/m² | - |
| 1777994994 | 13.89° C | 94% | 1014 hPa | 0 mm | 1.34 m/s, 68° | 16 W/m² | - |
| 1777994694 | 13.89° C | 94% | 1014 hPa | 0 mm | 1.34 m/s, 61° | 30 W/m² | - |
| 1777994394 | 13.89° C | 94% | 1014 hPa | 0 mm | 2.24 m/s, 74° | 28 W/m² | - |
| 1777994094 | 13.89° C | 94% | 1014 hPa | 0 mm | 0.89 m/s, 43° | 24 W/m² | - |
| 1777993794 | 13.89° C | 94% | 1013.9 hPa | 0 mm | 0.45 m/s, 15° | 24 W/m² | - |
| 1777993494 | 13.89° C | 94% | 1014 hPa | 0 mm | 0.89 m/s, 59° | 25 W/m² | - |
| 1777993194 | 13.89° C | 94% | 1014 hPa | 0.25 mm | 0.89 m/s, 62° | 37 W/m² | - |
| 1777992894 | 13.89° C | 94% | 1014 hPa | 0.25 mm | 1.34 m/s, 71° | 37 W/m² | - |
| 1777992593 | 13.89° C | 94% | 1014 hPa | 0.25 mm | 0.89 m/s, 69° | 36 W/m² | - |
| 1777992293 | 13.89° C | 94% | 1014.1 hPa | 0.25 mm | 0.89 m/s, 73° | 39 W/m² | - |
| 1777991993 | 14.44° C | 94% | 1014.1 hPa | 0.25 mm | 1.34 m/s, 74° | 44 W/m² | - |
| 1777991693 | 13.89° C | 94% | 1014.1 hPa | 0.25 mm | 1.34 m/s, 67° | 51 W/m² | - |
| 1777991393 | 14.44° C | 94% | 1014.1 hPa | 0.25 mm | 1.79 m/s, 62° | 56 W/m² | - |
| 1777991093 | 14.44° C | 94% | 1014.2 hPa | 0.25 mm | 0.89 m/s, 75° | 55 W/m² | - |
| 1777990793 | 14.44° C | 94% | 1014.1 hPa | 0.25 mm | 1.34 m/s, 65° | 57 W/m² | - |
| 1777990493 | 14.44° C | 94% | 1014.1 hPa | 0.25 mm | 0.89 m/s, 68° | 59 W/m² | - |
| 1777990193 | 14.44° C | 94% | 1014.1 hPa | 0.25 mm | 1.34 m/s, 72° | 95 W/m² | - |
| 1777989893 | 14.44° C | 94% | 1014.3 hPa | 0.25 mm | 1.34 m/s, 54° | 77 W/m² | - |
| 1777989593 | 14.44° C | 94% | 1014.3 hPa | 0 mm | 1.34 m/s, 71° | 82 W/m² | - |
| 1777989293 | 14.44° C | 94% | 1014.3 hPa | 0 mm | 0.89 m/s, 70° | 59 W/m² | - |
| 1777988992 | 14.44° C | 93% | 1014.3 hPa | 0 mm | 1.34 m/s, 30° | 88 W/m² | - |
* Rain latest hour (hover to see other rain measurements)
** Current wind speed in m/s (hover to see current wind gust speed)